Weather History for K05U - June, 2013

Change the Weather History Date:

Sunday, June 16, 2013

  Actual Average Record
Temperature  
Mean Temperature 64 °F -  
Max Temperature 87 °F - - ()
Min Temperature 42 °F - - ()
Growing Degree Days 14 (Base 50)    
Moisture  
Dew Point 14 °F    
Average Humidity 16    
Maximum Humidity 32    
Minimum Humidity 6    
Precipitation  
Precipitation 0.00 in - - ()
Sea Level Pressure  
Sea Level Pressure 30.12 in    
Wind  
Wind Speed 5 mph (SSW)    
Max Wind Speed 13 mph    
Max Gust Speed 22 mph    
Visibility 10 miles    
Events      
T = Trace of Precipitation, MM = Missing Value Source: NWS Daily Summary

Daily Weather History Graph

Daily Weather History Graph

Search for Another Location

Airport or City:

Trip Planner

Search our weather history database for the weather conditions in past years. The results will help you decide how hot, cold, wet, or windy it might be!

Date:

Astronomy

Jun. 16, 2013 Rise Set
Actual Time 5:15 AM PDT 8:13 PM PDT
Civil Twilight 4:43 AM PDT 8:46 PM PDT
Nautical Twilight 4:02 AM PDT 9:27 PM PDT
Astronomical Twilight 3:14 AM PDT 10:15 PM PDT
Moon 12:55 PM PDT (6/16) 12:22 AM PDT (6/16)
Length of Visible Light 16h 02m
Length of Day
14h 57m
Waxing Crescent, 51% of the Moon is Illuminated
Jun 16
Waxing Crescent
Jun 23
Full
Jun 29
Last Quarter
Jul 8
New
Jul 15
First Quarter

Hourly Weather History & Observations

Time (PDT) Temp. Windchill Dew Point Humidity Pressure Visibility Wind Dir Wind Speed Gust Speed Precip Events Conditions
12:10 AM 50.0 °F - 17.6 °F 28% 30.07 in 10.0 mi Calm Calm - N/A   Clear
12:30 AM 48.2 °F - 14.0 °F 25% 30.07 in 10.0 mi South 5.8 mph - N/A   Clear
12:50 AM 48.2 °F - 15.8 °F 27% 30.07 in 10.0 mi South 8.1 mph - N/A   Clear
1:10 AM 48.2 °F - 15.8 °F 27% 30.07 in 10.0 mi South 6.9 mph - N/A   Clear
1:30 AM 53.6 °F - 14.0 °F 21% 30.07 in 10.0 mi SSW 8.1 mph - N/A   Clear
1:50 AM 50.0 °F - 15.8 °F 26% 30.07 in 10.0 mi Calm Calm - N/A   Clear
2:10 AM 46.4 °F - 17.6 °F 32% 30.07 in 10.0 mi Calm Calm - N/A   Clear
2:30 AM 46.4 °F 43.5 °F 15.8 °F 29% 30.08 in 10.0 mi WSW 5.8 mph - N/A   Clear
2:50 AM 46.4 °F 43.5 °F 15.8 °F 29% 30.08 in 10.0 mi SW 5.8 mph - N/A   Clear
3:10 AM 46.4 °F 43.5 °F 15.8 °F 29% 30.08 in 10.0 mi South 5.8 mph - N/A   Clear
3:30 AM 48.2 °F - 10.4 °F 22% 30.08 in 10.0 mi SSW 9.2 mph - N/A   Clear
3:50 AM 46.4 °F 42.9 °F 10.4 °F 23% 30.08 in 10.0 mi South 6.9 mph - N/A   Clear
4:10 AM 46.4 °F 42.9 °F 12.2 °F 25% 30.09 in 10.0 mi South 6.9 mph - N/A   Clear
4:30 AM 46.4 °F 42.9 °F 10.4 °F 23% 30.09 in 10.0 mi SSW 6.9 mph - N/A   Clear
4:50 AM 42.8 °F 38.0 °F 12.2 °F 29% 30.09 in 10.0 mi South 8.1 mph - N/A   Clear
5:10 AM 44.6 °F 39.7 °F 12.2 °F 27% 30.10 in 10.0 mi SSW 9.2 mph - N/A   Clear
5:30 AM 42.8 °F 38.6 °F 10.4 °F 27% 30.10 in 10.0 mi SW 6.9 mph - N/A   Clear
5:50 AM 44.6 °F 40.2 °F 14.0 °F 29% 30.11 in 10.0 mi SW 8.1 mph - N/A   Clear
6:10 AM 48.2 °F - 14.0 °F 25% 30.12 in 10.0 mi WSW 3.5 mph - N/A   Clear
6:30 AM 53.6 °F - 12.2 °F 19% 30.12 in 10.0 mi Calm Calm - N/A   Clear
6:50 AM 55.4 °F - 14.0 °F 20% 30.12 in 10.0 mi Calm Calm - N/A   Clear
7:10 AM 57.2 °F - 14.0 °F 18% 30.13 in 10.0 mi West 4.6 mph - N/A   Clear
7:30 AM 59.0 °F - 14.0 °F 17% 30.13 in 10.0 mi Calm Calm - N/A   Clear
7:50 AM 64.4 °F - 12.2 °F 13% 30.14 in 10.0 mi North 4.6 mph - N/A   Clear
8:10 AM 66.2 °F - 19.4 °F 17% 30.14 in 10.0 mi NNE 6.9 mph - N/A   Clear
8:30 AM 68.0 °F - 21.2 °F 17% 30.15 in 10.0 mi NNE 4.6 mph - N/A   Clear
8:50 AM 69.8 °F - 17.6 °F 14% 30.15 in 10.0 mi NNE 4.6 mph - N/A   Clear
9:10 AM 71.6 °F - 19.4 °F 14% 30.15 in 10.0 mi East 4.6 mph - N/A   Clear
9:30 AM 73.4 °F - 15.8 °F 11% 30.15 in 10.0 mi East 3.5 mph - N/A   Clear
9:50 AM 75.2 °F - 10.4 °F 8% 30.15 in 10.0 mi ESE 4.6 mph - N/A   Clear
10:10 AM 77.0 °F - 10.4 °F 8% 30.14 in 10.0 mi East 3.5 mph - N/A   Clear
10:30 AM 77.0 °F - 12.2 °F 9% 30.14 in 10.0 mi East 3.5 mph - N/A   Clear
10:50 AM 78.8 °F - 10.4 °F 7% 30.14 in 10.0 mi Calm Calm - N/A   Clear
11:10 AM 78.8 °F - 8.6 °F 7% 30.14 in 10.0 mi West 5.8 mph - N/A   Clear
11:30 AM 80.6 °F - 8.6 °F 6% 30.14 in 10.0 mi Calm Calm - N/A   Clear
11:50 AM 80.6 °F - 8.6 °F 6% 30.13 in 10.0 mi West 6.9 mph - N/A   Clear
12:10 PM 80.6 °F - 6.8 °F 6% 30.13 in 10.0 mi ESE 3.5 mph - N/A   Clear
12:30 PM 82.4 °F - 10.4 °F 7% 30.12 in 10.0 mi SSE 8.1 mph - N/A   Clear
12:50 PM 82.4 °F - 8.6 °F 6% 30.12 in 10.0 mi South 8.1 mph - N/A   Clear
1:10 PM 84.2 °F - 8.6 °F 6% 30.11 in 10.0 mi Calm Calm - N/A   Clear
1:30 PM 84.2 °F - 10.4 °F 6% 30.10 in 10.0 mi NNE 9.2 mph 21.9 mph N/A   Clear
1:50 PM 84.2 °F - 10.4 °F 6% 30.10 in 10.0 mi West 6.9 mph - N/A   Clear
2:10 PM 86.0 °F - 10.4 °F 6% 30.09 in 10.0 mi North 10.4 mph 21.9 mph N/A   Clear
2:30 PM 84.2 °F - 12.2 °F 7% 30.09 in 10.0 mi NNE 10.4 mph - N/A   Clear
2:50 PM 86.0 °F - 12.2 °F 6% 30.09 in 10.0 mi Calm Calm - N/A   Clear
3:10 PM 86.0 °F - 12.2 °F 6% 30.08 in 10.0 mi East 6.9 mph - N/A   Clear
3:30 PM 86.0 °F - 14.0 °F 7% 30.08 in 10.0 mi SW 4.6 mph - N/A   Clear
3:50 PM 86.0 °F - 10.4 °F 6% 30.08 in 10.0 mi NNE 4.6 mph - N/A   Clear
4:10 PM 87.8 °F - 12.2 °F 6% 30.08 in 10.0 mi NW 4.6 mph - N/A   Clear
4:30 PM 86.0 °F - 14.0 °F 7% 30.08 in 10.0 mi West 11.5 mph - N/A   Clear
4:40 PM 86.0 °F - 14.0 °F 7% 30.07 in 10.0 mi SW 6.9 mph - N/A   Clear
8:30 PM 73.4 °F - 14.0 °F 10% 30.13 in 10.0 mi NW 12.7 mph 17.3 mph N/A   Unknown
8:50 PM 71.6 °F - 14.0 °F 11% 30.14 in 10.0 mi WNW 8.1 mph 18.4 mph N/A   Clear
9:10 PM 69.8 °F - 14.0 °F 12% 30.15 in 10.0 mi NW 8.1 mph - N/A   Clear
9:30 PM 66.2 °F - 19.4 °F 17% 30.16 in 10.0 mi SE 6.9 mph - N/A   Clear
9:50 PM 60.8 °F - 19.4 °F 20% 30.17 in 10.0 mi ESE 3.5 mph - N/A   Clear
10:10 PM 62.6 °F - 15.8 °F 16% 30.18 in 10.0 mi East 4.6 mph - N/A   Clear
10:30 PM 59.0 °F - 15.8 °F 19% 30.19 in 10.0 mi Calm Calm - N/A   Clear
10:50 PM 57.2 °F - 15.8 °F 20% 30.19 in 10.0 mi WSW 8.1 mph - N/A   Clear
11:10 PM 55.4 °F - 17.6 °F 23% 30.20 in 10.0 mi SSW 6.9 mph - N/A   Clear
11:30 PM 53.6 °F - 15.8 °F 22% 30.20 in 10.0 mi South 4.6 mph - N/A   Clear
11:50 PM 48.2 °F - 19.4 °F 32% 30.20 in 10.0 mi South 4.6 mph - N/A   Clear